Date,TemperatureHighF,TemperatureAvgF,TemperatureLowF,DewpointHighF,DewpointAvgF,DewpointLowF,HumidityHigh,HumidityAvg,HumidityLow,PressureMaxIn,PressureMinIn,WindSpeedMaxMPH,WindSpeedAvgMPH,GustSpeedMaxMPH,PrecipitationSumIn
2013-2-1,46,42,37,43,40,36,97,91,80,29.85,29.45,7,1,7,0.25
2013-2-2,42,38,29,38,32,26,95,79,64,30.25,29.60,10,3,10,0.00
2013-2-3,49,40,28,46,38,26,94,89,83,30.26,29.90,8,1,8,0.00
2013-2-4,51,48,43,47,41,36,92,76,57,29.94,29.71,14,4,14,0.00
2013-2-5,43,40,36,40,33,28,93,77,55,29.72,29.33,18,5,18,0.13
2013-2-6,44,40,35,39,34,28,93,79,67,30.06,29.36,24,5,24,0.04
2013-2-7,42,37,33,36,32,27,96,81,66,30.11,29.99,9,2,9,0.02
2013-2-8,43,37,31,37,33,29,97,86,67,30.15,30.03,7,1,7,0.01
2013-2-9,39,37,34,37,35,31,96,92,84,30.16,29.86,9,0,9,0.03
2013-2-10,41,38,33,40,37,32,98,96,94,29.86,29.26,8,2,8,0.48
2013-2-11,35,34,33,34,33,32,98,97,95,29.78,29.28,7,2,7,0.22
2013-2-12,36,35,34,33,31,28,96,85,77,30.14,29.77,7,2,7,0.00
2013-2-13,40,35,33,38,30,25,95,82,66,30.20,29.97,8,2,8,0.01
2013-2-14,53,46,40,47,42,36,98,87,67,29.98,29.73,12,3,12,0.06
2013-2-15,52,41,33,41,37,32,98,85,58,30.20,29.98,7,1,7,0.00
2013-2-16,51,43,34,41,37,32,96,82,56,30.24,30.19,4,0,4,0.00
2013-2-17,50,39,28,41,34,28,99,86,52,30.20,30.09,9,1,9,0.00
2013-2-18,48,38,30,39,34,29,99,87,60,30.14,30.09,7,1,7,0.01
2013-2-19,49,35,26,39,31,25,99,87,59,30.13,30.05,2,0,2,0.00
2013-2-20,42,38,34,38,33,28,98,84,66,30.25,30.10,13,3,13,0.02
2013-2-21,37,35,33,28,25,22,74,67,59,30.26,30.16,14,4,14,0.00
2013-2-22,36,34,32,27,24,22,76,68,62,30.16,30.09,12,4,12,0.00
2013-2-23,37,34,32,30,27,24,86,75,62,30.21,30.08,12,3,12,0.00
2013-2-24,36,35,33,30,29,27,87,79,72,30.27,30.19,10,3,10,0.00
2013-2-25,40,38,35,36,34,29,91,86,80,30.38,30.25,13,4,13,0.00
2013-2-26,41,39,37,39,37,35,96,94,90,30.56,30.37,10,3,10,0.02
2013-2-27,43,39,36,37,35,33,95,86,73,30.56,30.48,12,4,12,0.00
2013-2-28,47,40,35,39,35,32,92,84,72,30.48,30.33,8,2,8,0.00